[[{"header":{"parameterUnit":"m.s-1","parameterCategory":1,"la1":30.2991,"la2":30.254,"lo1":-89.0895,"lo2":-89.0444,"dy":0.0017,"dx":0.0017,"nx":28,"ny":28,"refTime":"2024-03-14T03:00:00:Z","depth":0,"parameterNumber":2,"parameterNumberName":"U-component_of_WINDS"},"data":[0,0,0,0,0,0,0,0,0,0,0,0,0,0,0,0,0,0,0,0,0,0,0,0,0,0,0,0,0,0,0,0,0,0,0,0,0,0,0,0,0,0,0,0,0,0,0,0,0,0,0,0,0,0,0,0,0,0,-2.7113,-2.7114,0,-2.7173,-2.7174,-2.7174,-2.7179,-2.7178,-2.7178,-2.7177,-2.724,-2.7242,-2.7245,0,0,0,0,0,0,0,0,0,0,0,0,0,-2.7006,-2.7008,-2.7113,-2.7114,-2.7115,-2.7173,-2.7174,-2.7174,-2.7179,-2.7178,-2.7177,-2.7177,-2.7239,-2.7242,-2.7245,0,0,0,0,0,0,0,0,0,0,0,0,0,-2.7058,-2.7008,-2.7113,-2.7124,-2.7126,-2.7173,-2.7174,-2.7175,-2.7179,-2.7178,-2.7177,-2.7176,-2.7239,-2.7242,-2.7245,-2.7286,0,0,-2.7256,-2.7257,0,0,0,0,0,0,0,0,-2.7055,-2.7062,-2.7122,-2.7123,-2.7125,-2.7167,-2.7159,-2.7212,-2.7179,-2.7159,-2.7177,-2.7176,-2.7217,-2.7222,-2.7236,-2.7289,-2.7292,-2.7256,-2.7258,-2.726,-2.7261,0,0,0,0,0,0,0,-2.7051,-2.7059,-2.7137,-2.7123,-2.7125,-2.7127,-2.7133,-2.7169,-2.7193,-2.7161,-2.7161,-2.7168,-2.7218,-2.7232,-2.7237,-2.7293,-2.7256,-2.7259,-2.7261,-2.7263,-2.7384,-2.7385,0,0,0,0,0,0,-2.7045,-2.7056,-2.7135,-2.7139,-2.7087,-2.7129,-2.7136,-2.7155,-2.7192,-2.7197,-2.7169,-2.7168,-2.7227,-2.7233,-2.7239,-2.7289,-2.726,-2.7263,-2.7265,-2.7383,-2.7384,-2.7385,0,0,0,0,0,0,-2.7043,-2.7052,-2.7133,-2.7098,-2.7108,-2.7132,-2.7153,-2.7157,-2.7171,-2.7198,-2.7203,-2.7179,-2.7226,-2.7234,-2.7275,-2.7292,-2.7265,-2.7268,-2.7381,-2.7383,-2.7385,-2.739,0,0,0,0,0,0,-2.704,-2.7051,-2.7066,-2.7098,-2.711,-2.7166,-2.7154,-2.7158,-2.7177,-2.7176,-2.7209,-2.7214,-2.7226,-2.7269,-2.7278,-2.7296,-2.727,-2.738,-2.7382,-2.7384,-2.7388,-2.7392,-2.7394,0,0,0,0,0,-2.7036,-2.7066,-2.7067,-2.7077,-2.7129,-2.7167,-2.7174,-2.7187,-2.7178,-2.7194,-2.7212,-2.7213,-2.7289,-2.7273,-2.7283,-2.7302,-2.7379,-2.7381,-2.7384,-2.7387,-2.7391,-2.7394,0,0,0,0,0,0,-2.7037,-2.707,-2.7072,-2.7113,-2.7137,-2.7168,-2.7188,-2.7191,-2.7218,-2.7217,-2.7232,-2.724,-2.7279,-2.7295,-2.7277,-2.7344,-2.7333,-2.7338,-2.7332,-2.7336,-2.7339,-2.7334,-2.7273,0,0,0,0,0,-2.7042,-2.7069,-2.7097,-2.7131,-2.7143,-2.7163,-2.718,-2.7188,-2.7214,-2.7224,-2.7245,-2.727,-2.73,-2.7319,-2.7348,-2.7391,-2.7398,-2.741,-2.7413,-2.7415,-2.7418,-2.7442,-2.7447,-2.7394,-2.7394,-2.7394,0,0,-2.7052,-2.7074,-2.709,-2.7132,-2.7151,-2.7179,-2.7172,-2.7202,-2.7223,-2.7229,-2.7267,-2.7284,-2.7314,-2.7355,-2.7375,-2.737,-2.7435,-2.7418,-2.742,-2.7422,-2.7445,-2.745,-2.7455,-2.7396,-2.7395,-2.7395,0,0,-2.7086,-2.7105,-2.7135,-2.7154,-2.7184,-2.7197,-2.7204,-2.7235,-2.7245,-2.7284,-2.7289,-2.7316,-2.7366,-2.7387,-2.7404,-2.7446,-2.7448,-2.7456,-2.7471,-2.7494,-2.7498,-2.7502,-2.7516,-2.7521,-2.7459,-2.7459,-2.7459,0,-2.7095,-2.7137,-2.715,-2.718,-2.7198,-2.7204,-2.7234,-2.7253,-2.7291,-2.7304,-2.7298,-2.7361,-2.7382,-2.7428,-2.7438,-2.7453,-2.7461,-2.7451,-2.7496,-2.75,-2.7504,-2.7517,-2.7523,-2.746,-2.746,-2.746,-2.746,0,-2.7147,-2.7176,-2.7197,-2.7231,-2.7252,-2.7282,-2.7301,-2.732,-2.7327,-2.7341,-2.7381,-2.7406,-2.744,-2.7452,-2.7459,-2.7499,-2.7495,-2.7493,-2.7481,-2.7509,-2.7522,-2.7528,-2.7461,-2.746,-2.746,-2.746,0,0,-2.7181,-2.7223,-2.723,-2.7246,-2.7279,-2.7302,-2.7333,-2.7365,-2.7382,-2.7408,-2.7434,-2.7477,-2.7475,-2.7495,-2.7504,-2.7525,-2.7556,-2.752,-2.7521,-2.7524,-2.7601,-2.7602,-2.7607,-2.7558,-2.7559,-2.756,-2.7598,0,-2.7217,-2.727,-2.7283,-2.7329,-2.7356,-2.7363,-2.739,-2.7414,-2.7429,-2.7455,-2.7471,-2.7501,-2.7496,-2.7508,-2.7529,-2.7547,-2.7571,-2.7545,-2.7582,-2.7583,-2.7573,-2.7614,-2.7615,-2.765,-2.7604,-2.7604,-2.7605,0,-2.7265,-2.7291,-2.734,-2.7369,-2.7381,-2.7405,-2.7435,-2.746,-2.7488,-2.7497,-2.7519,-2.7527,-2.756,-2.7548,-2.7594,-2.7576,-2.7593,-2.7604,-2.7606,-2.7609,-2.7595,-2.7617,-2.7662,-2.7666,-2.7613,-2.7613,-2.7612,0,-2.7284,-2.7332,-2.7366,-2.738,-2.7416,-2.7432,-2.7448,-2.7474,-2.7493,-2.752,-2.7533,-2.7564,-2.7581,-2.7605,-2.7622,-2.7612,-2.7666,-2.7656,-2.7675,-2.7675,-2.7685,-2.7684,-2.7731,-2.7698,-2.7698,-2.7698,-2.7698,0,-2.7322,-2.7351,-2.7375,-2.7396,-2.743,-2.7445,-2.7478,-2.7494,-2.7517,-2.7543,-2.7552,-2.7575,-2.7596,-2.7623,-2.7636,-2.7672,-2.768,-2.7689,-2.7692,-2.7687,-2.7686,-2.7697,-2.7694,-2.7699,-2.7699,-2.7698,-2.7698,0,-2.7347,-2.7365,-2.7403,-2.7434,-2.7442,-2.7465,-2.7491,-2.7513,-2.7528,-2.756,-2.7569,-2.7593,-2.7625,-2.7644,-2.7685,-2.7694,-2.7733,-2.7736,-2.7723,-2.7724,-2.7742,-2.7739,-2.7797,-2.7805,-2.7767,-2.7768,-2.7768,0,-2.7369,-2.7392,-2.7425,-2.7441,-2.7457,-2.7485,-2.7503,-2.752,-2.754,-2.7573,-2.759,-2.7623,-2.7649,-2.77,-2.7722,-2.7754,-2.7756,-2.7775,-2.7761,-2.7756,-2.7755,-2.7753,-2.7755,-2.7776,-2.7777,-2.7777,-2.7777,0,-2.7407,-2.7414,-2.744,-2.747,-2.7491,-2.7516,-2.754,-2.7554,-2.7575,-2.7596,-2.7628,-2.7649,-2.769,-2.7722,-2.7756,-2.7773,-2.7779,-2.7781,-2.7787,-2.7782,-2.7773,-2.7777,-2.7728,-2.7779,-2.7779,-2.7779,-2.7779,-2.7779,-2.7431,-2.745,-2.7476,-2.7505,-2.7525,-2.7547,-2.7569,-2.7587,-2.7613,-2.7647,-2.7656,-2.769,-2.7718,-2.7763,-2.7781,-2.7809,-2.7806,-2.7814,-2.7816,-2.7818,-2.7818,-2.777,-2.7815,-2.7815,-2.7815,-2.7815,-2.7815,0,-2.7467,-2.7484,-2.7511,-2.7543,-2.7566,-2.7569,-2.7596,-2.7615,-2.7645,-2.7669,-2.7695,-2.7733,-2.7764,-2.7788,-2.7821,-2.7838,-2.7841,-2.7846,-2.7844,-2.7848,-2.7819,-2.781,-2.7843,-2.7843,-2.7843,-2.7842,-2.7842,-2.7842,-2.7489,-2.7522,-2.7533,-2.7577,-2.7594,-2.7626,-2.7641,-2.7662,-2.7682,-2.7723,-2.7748,-2.7764,-2.7789,-2.7823,-2.7853,-2.7859,-2.787,-2.7874,-2.7881,-2.7853,-2.785,-2.7847,-2.7839,-2.7877,-2.7877,-2.7907,-2.7908,-2.7908]},{"header":{"parameterUnit":"m.s-1","parameterCategory":1,"la1":30.2991,"la2":30.254,"lo1":-89.0895,"lo2":-89.0444,"dy":0.0017,"dx":0.0017,"nx":28,"ny":28,"refTime":"2024-03-14T03:00:00:Z","depth":0,"parameterNumber":3,"parameterNumberName":"V-component_of_WINDS"},"data":[0,0,0,0,0,0,0,0,0,0,0,0,0,0,0,0,0,0,0,0,0,0,0,0,0,0,0,0,0,0,0,0,0,0,0,0,0,0,0,0,0,0,0,0,0,0,0,0,0,0,0,0,0,0,0,0,0,0,3.5367,3.5367,0,3.5418,3.5418,3.5419,3.5412,3.5411,3.541,3.5409,3.5462,3.5464,3.5466,0,0,0,0,0,0,0,0,0,0,0,0,0,3.5265,3.5267,3.5367,3.5367,3.5368,3.5418,3.5418,3.5419,3.5412,3.5411,3.541,3.5409,3.5461,3.5464,3.5466,0,0,0,0,0,0,0,0,0,0,0,0,0,3.5312,3.5267,3.5366,3.537,3.5371,3.5417,3.5418,3.5419,3.5412,3.5411,3.541,3.5408,3.546,3.5463,3.5467,3.5512,0,0,3.5477,3.5478,0,0,0,0,0,0,0,0,3.5309,3.5315,3.5369,3.537,3.5371,3.5407,3.5402,3.545,3.5412,3.5397,3.5409,3.5408,3.5445,3.5449,3.5461,3.5515,3.5517,3.5477,3.5479,3.548,3.5481,0,0,0,0,0,0,0,3.5306,3.5313,3.5387,3.537,3.5371,3.537,3.5375,3.5411,3.5427,3.5398,3.5397,3.5404,3.5445,3.5458,3.5463,3.5518,3.5477,3.548,3.5482,3.5483,3.5614,3.5616,0,0,0,0,0,0,3.5301,3.5311,3.5385,3.5388,3.5336,3.5373,3.5379,3.5397,3.5427,3.543,3.5405,3.5403,3.5453,3.5459,3.5464,3.5522,3.548,3.5483,3.5485,3.5613,3.5615,3.5616,0,0,0,0,0,0,3.5299,3.5308,3.5383,3.5349,3.5359,3.5376,3.5396,3.5398,3.5412,3.5432,3.5435,3.5415,3.5453,3.546,3.5501,3.5524,3.5485,3.5488,3.5611,3.5614,3.5616,3.5637,0,0,0,0,0,0,3.5296,3.5307,3.5324,3.535,3.5361,3.5419,3.5398,3.54,3.5418,3.5416,3.5443,3.5446,3.5452,3.5496,3.5504,3.5528,3.549,3.5609,3.5612,3.5615,3.5635,3.564,3.5645,0,0,0,0,0,3.5293,3.5328,3.5325,3.5334,3.5382,3.542,3.5426,3.5433,3.5419,3.5437,3.545,3.5445,3.552,3.5501,3.551,3.5534,3.5608,3.5611,3.5615,3.5632,3.5639,3.5644,0,0,0,0,0,0,3.5304,3.5331,3.5329,3.5373,3.5394,3.5418,3.5441,3.5439,3.5464,3.5462,3.5469,3.5475,3.5518,3.553,3.5508,3.5582,3.5562,3.5568,3.5572,3.5579,3.5584,3.5581,3.5493,0,0,0,0,0,3.5311,3.5339,3.5362,3.5398,3.5409,3.5424,3.544,3.5443,3.5466,3.5475,3.5491,3.5513,3.5542,3.5561,3.5588,3.5636,3.5643,3.5658,3.5663,3.5667,3.5672,3.5701,3.5708,3.5628,3.5628,3.5628,0,0,3.5327,3.5346,3.5363,3.5401,3.5418,3.5448,3.5431,3.5462,3.5485,3.5479,3.552,3.5533,3.5558,3.5604,3.5625,3.5616,3.5696,3.5671,3.5674,3.5677,3.5705,3.5713,3.572,3.563,3.563,3.5629,0,0,3.5373,3.5388,3.5422,3.544,3.5466,3.5476,3.5484,3.5509,3.5518,3.5559,3.5556,3.5583,3.5632,3.5651,3.5667,3.5722,3.5719,3.573,3.5757,3.5785,3.5792,3.5798,3.582,3.5827,3.5735,3.5735,3.5735,0,3.5389,3.5434,3.544,3.5473,3.5491,3.5487,3.5523,3.554,3.5573,3.5586,3.5575,3.5639,3.5655,3.5707,3.572,3.5732,3.5744,3.5728,3.579,3.5796,3.5802,3.5823,3.5831,3.5736,3.5736,3.5736,3.5736,0,3.5454,3.5485,3.551,3.5544,3.5564,3.5598,3.561,3.563,3.5632,3.5643,3.5687,3.5707,3.574,3.5751,3.5753,3.5804,3.5798,3.5788,3.5769,3.5811,3.5831,3.5839,3.5738,3.5738,3.5738,3.5737,0,0,3.5508,3.5546,3.5555,3.5572,3.5601,3.5626,3.566,3.5693,3.5711,3.5735,3.5765,3.5808,3.58,3.5818,3.5822,3.5847,3.5892,3.5835,3.5835,3.5847,3.5953,3.5962,3.5971,3.589,3.5891,3.5893,3.5952,0,3.5558,3.5619,3.5626,3.5681,3.5712,3.571,3.574,3.5762,3.5774,3.5802,3.5814,3.5845,3.5831,3.5843,3.5867,3.5882,3.5914,3.5877,3.592,3.5922,3.5916,3.5981,3.599,3.6045,3.596,3.5961,3.5962,0,3.5624,3.5651,3.5709,3.5737,3.575,3.5777,3.5809,3.5835,3.5861,3.5868,3.5889,3.5891,3.5928,3.5906,3.5959,3.5934,3.5952,3.5962,3.5964,3.597,3.5946,3.5991,3.6062,3.6072,3.5974,3.5973,3.5972,0,3.5661,3.5711,3.5753,3.5767,3.58,3.582,3.5834,3.5859,3.5879,3.5906,3.592,3.5951,3.5969,3.5994,3.6005,3.5987,3.6058,3.6036,3.6066,3.6066,3.6083,3.6082,3.616,3.609,3.609,3.609,3.609,0,3.5717,3.5753,3.5771,3.5797,3.5838,3.5847,3.5888,3.5901,3.5924,3.5954,3.5953,3.5981,3.5992,3.6022,3.603,3.6075,3.6082,3.609,3.6092,3.6091,3.6091,3.6105,3.6102,3.6092,3.6092,3.6091,3.6091,0,3.5765,3.5778,3.5825,3.5852,3.586,3.589,3.5914,3.594,3.5952,3.599,3.5999,3.6017,3.6053,3.6066,3.6109,3.6115,3.6167,3.6164,3.6159,3.616,3.619,3.6188,3.6282,3.6296,3.6214,3.6215,3.6216,0,3.5802,3.583,3.5861,3.5882,3.5897,3.5929,3.595,3.596,3.5982,3.6014,3.6037,3.6073,3.6102,3.616,3.6177,3.6211,3.6211,3.6242,3.6216,3.6216,3.6215,3.6214,3.6219,3.6247,3.6248,3.6249,3.6249,0,3.5866,3.5871,3.5901,3.5934,3.596,3.5986,3.6011,3.6028,3.6042,3.6066,3.6104,3.6126,3.6171,3.6208,3.6243,3.6258,3.6258,3.6257,3.6266,3.6267,3.6264,3.6269,3.6174,3.6255,3.6255,3.6254,3.6254,3.6254,3.5911,3.5937,3.5964,3.5999,3.6019,3.6043,3.607,3.6086,3.6117,3.6155,3.6158,3.6199,3.6226,3.6273,3.629,3.6323,3.6315,3.6328,3.6331,3.6335,3.6339,3.6257,3.6329,3.6329,3.6329,3.6329,3.6329,0,3.5978,3.5995,3.6027,3.6063,3.6091,3.6086,3.6115,3.6139,3.6175,3.62,3.6229,3.6273,3.6309,3.633,3.6366,3.6389,3.6389,3.6398,3.6398,3.6402,3.6343,3.6332,3.6397,3.6397,3.6397,3.6397,3.6397,3.6397,3.6016,3.6061,3.607,3.6126,3.6143,3.6183,3.62,3.6224,3.6244,3.6293,3.6323,3.6337,3.6361,3.64,3.6433,3.6438,3.6453,3.6463,3.6468,3.6413,3.6406,3.6399,3.639,3.6465,3.6466,3.6525,3.6526,3.6526]}]]